| time (UTC) | temp C | wind direction | speed KPH | gust KPH | rain 1hr cm | rain 24hr cm | rain mn cm | humidity % | barometer mb |
| 20260504205112 | 25 | 155 | 3.2 | 8.0 | 0.00 | 0.00 | 0.00 | 35 | 1007.2 |
| 20260504204322 | 25 | 197 | 1.6 | 9.7 | 0.00 | 0.00 | 0.00 | 36 | 1007.2 |
| 20260504203823 | 25 | 138 | 1.6 | 9.7 | 0.00 | 0.00 | 0.00 | 36 | 1007.2 |
| 20260504203323 | 25 | 212 | 3.2 | 9.7 | 0.00 | 0.00 | 0.00 | 35 | 1007.3 |
| 20260504202821 | 24 | 247 | 3.2 | 9.7 | 0.00 | 0.00 | 0.00 | 36 | 1007.5 |
| 20260504202322 | 25 | 203 | 3.2 | 9.7 | 0.00 | 0.00 | 0.00 | 35 | 1007.5 |
| 20260504201808 | 25 | 213 | 1.6 | 9.7 | 0.00 | 0.00 | 0.00 | 36 | 1007.6 |
| 20260504201308 | 25 | 220 | 1.6 | 6.4 | 0.00 | 0.00 | 0.00 | 35 | 1007.6 |
| 20260504200807 | 25 | 92 | 1.6 | 6.4 | 0.00 | 0.00 | 0.00 | 34 | 1007.6 |
| 20260504200307 | 25 | 238 | 1.6 | 11.3 | 0.00 | 0.00 | 0.00 | 35 | 1007.7 |
| 20260504195806 | 25 | 223 | 6.4 | 11.3 | 0.00 | 0.00 | 0.00 | 34 | 1007.8 |
| 20260504195306 | 25 | 245 | 4.8 | 11.3 | 0.00 | 0.00 | 0.00 | 32 | 1007.9 |
| 20260504194808 | 26 | 283 | 4.8 | 8.0 | 0.00 | 0.00 | 0.00 | 32 | 1008.0 |
| 20260504194306 | 25 | 166 | 1.6 | 11.3 | 0.00 | 0.00 | 0.00 | 33 | 1008.0 |
| 20260504193806 | 25 | 241 | 4.8 | 11.3 | 0.00 | 0.00 | 0.00 | 34 | 1008.1 |
| 20260504193307 | 25 | 327 | 1.6 | 9.7 | 0.00 | 0.00 | 0.00 | 32 | 1008.0 |
| 20260504192826 | 25 | 118 | 3.2 | 8.0 | 0.00 | 0.00 | 0.00 | 35 | 1008.2 |
| 20260504192818 | 25 | 230 | 1.6 | 9.7 | 0.00 | 0.00 | 0.00 | 35 | 1008.1 |
| 20260504191803 | 26 | 248 | 3.2 | 8.0 | 0.00 | 0.00 | 0.00 | 33 | 1008.3 |
| 20260504191543 | 26 | 251 | 1.6 | 14.5 | 0.00 | 0.00 | 0.00 | 35 | 1008.5 |
| 20260504190804 | 26 | 298 | 4.8 | 14.5 | 0.00 | 0.00 | 0.00 | 35 | 1008.7 |
| 20260504190544 | 25 | 58 | 1.6 | 11.3 | 0.00 | 0.00 | 0.00 | 34 | 1008.6 |
| 20260504185803 | 26 | 92 | 4.8 | 11.3 | 0.00 | 0.00 | 0.00 | 35 | 1008.8 |
| 20260504185304 | 26 | 230 | 4.8 | 11.3 | 0.00 | 0.00 | 0.00 | 35 | 1008.9 |
| 20260504185042 | 25 | 219 | 6.4 | 11.3 | 0.00 | 0.00 | 0.00 | 34 | 1008.9 |
| 20260504184302 | 25 | 221 | 4.8 | 8.0 | 0.00 | 0.00 | 0.00 | 33 | 1008.9 |
| 20260504183802 | 25 | 233 | 3.2 | 9.7 | 0.00 | 0.00 | 0.00 | 36 | 1009.0 |
| 20260504183541 | 25 | 107 | 1.6 | 16.1 | 0.00 | 0.00 | 0.00 | 36 | 1009.1 |
| 20260504182803 | 26 | 214 | 3.2 | 16.1 | 0.00 | 0.00 | 0.00 | 34 | 1009.2 |
| 20260504182304 | 26 | 234 | 4.8 | 14.5 | 0.00 | 0.00 | 0.00 | 34 | 1009.2 |
| 20260504181803 | 25 | 192 | 3.2 | 11.3 | 0.00 | 0.00 | 0.00 | 35 | 1009.3 |
| 20260504181304 | 25 | 258 | 3.2 | 11.3 | 0.00 | 0.00 | 0.00 | 34 | 1009.4 |
| 20260504180801 | 25 | 7 | 3.2 | 11.3 | 0.00 | 0.00 | 0.00 | 34 | 1009.5 |
| 20260504180301 | 25 | 206 | 4.8 | 11.3 | 0.00 | 0.00 | 0.00 | 33 | 1009.7 |
| 20260504180044 | 25 | 321 | 1.6 | 9.7 | 0.00 | 0.00 | 0.00 | 35 | 1009.6 |
| 20260504175543 | 25 | 329 | 1.6 | 9.7 | 0.00 | 0.00 | 0.00 | 36 | 1009.6 |
| 20260504174758 | 25 | 268 | 3.2 | 9.7 | 0.00 | 0.00 | 0.00 | 35 | 1009.8 |
| 20260504174258 | 24 | 188 | 4.8 | 9.7 | 0.00 | 0.00 | 0.00 | 36 | 1009.9 |
| 20260504173756 | 23 | 219 | 3.2 | 9.7 | 0.00 | 0.00 | 0.00 | 35 | 1010.0 |
| 20260504173252 | 25 | 210 | 4.8 | 14.5 | 0.00 | 0.00 | 0.00 | 35 | 1009.9 |
| 20260504172753 | 25 | 317 | 3.2 | 14.5 | 0.00 | 0.00 | 0.00 | 35 | 1010.0 |
| 20260504172236 | 25 | 204 | 3.2 | 8.0 | 0.00 | 0.00 | 0.00 | 33 | 1010.1 |
| 20260504172011 | 25 | 204 | 1.6 | 6.4 | 0.00 | 0.00 | 0.00 | 36 | 1010.2 |
| 20260504171231 | 24 | 107 | 3.2 | 8.0 | 0.00 | 0.00 | 0.00 | 37 | 1010.2 |
| 20260504170733 | 25 | 268 | 3.2 | 8.0 | 0.00 | 0.00 | 0.00 | 35 | 1010.4 |
| 20260504170231 | 25 | 266 | 3.2 | 6.4 | 0.00 | 0.00 | 0.00 | 36 | 1010.4 |
| 20260504160202 | 24 | 262 | 1.6 | 4.8 | 0.00 | 0.00 | 0.00 | 35 | 1011.0 |
| 20260504150700 | 22 | 258 | 1.6 | 8.0 | 0.00 | 0.00 | 0.00 | 38 | 1011.7 |
| 20260504150201 | 22 | 214 | 3.2 | 6.4 | 0.00 | 0.00 | 0.00 | 37 | 1011.8 |
| 20260504141159 | 20 | 142 | 1.6 | 6.4 | 0.00 | 0.00 | 0.00 | 41 | 1011.7 |
| 20260504140659 | 20 | 111 | 1.6 | 6.4 | 0.00 | 0.00 | 0.00 | 41 | 1011.7 |
| 20260504140200 | 20 | 90 | 1.6 | 6.4 | 0.00 | 0.00 | 0.00 | 41 | 1011.8 |
| 20260504130151 | 17 | 272 | 1.6 | 4.8 | 0.00 | 0.00 | 0.00 | 51 | 1012.4 |
| 20260504120140 | 12 | 195 | 1.6 | 4.8 | 0.00 | 0.00 | 0.00 | 62 | 1012.8 |
| 20260504110630 | 8 | 338 | 0.0 | 0.0 | 0.00 | 0.00 | 0.00 | 77 | 1012.8 |
| 20260504110133 | 8 | 338 | 0.0 | 0.0 | 0.00 | 0.00 | 0.00 | 76 | 1012.7 |
| 20260504100105 | 8 | 338 | 0.0 | 0.0 | 0.00 | 0.00 | 0.00 | 72 | 1012.6 |
| 20260504081551 | 8 | 338 | 0.0 | 3.2 | 0.00 | 0.00 | 0.00 | 74 | 1013.0 |
| 20260504081051 | 7 | 338 | 0.0 | 3.2 | 0.00 | 0.00 | 0.00 | 80 | 1013.0 |
| 20260504080829 | 7 | 338 | 0.0 | 3.2 | 0.00 | 0.00 | 0.00 | 81 | 1012.9 |
| 20260504050516 | 6 | 338 | 0.0 | 0.0 | 0.00 | 0.00 | 0.00 | 84 | 1013.5 |
| 20260504050253 | 6 | 338 | 0.0 | 0.0 | 0.00 | 0.00 | 0.00 | 84 | 1013.5 |
| 20260504045510 | 5 | 338 | 0.0 | 0.0 | 0.00 | 0.00 | 0.00 | 84 | 1013.5 |
| 20260504045011 | 5 | 338 | 0.0 | 0.0 | 0.00 | 0.00 | 0.00 | 84 | 1013.5 |
| 20260504044509 | 5 | 338 | 0.0 | 0.0 | 0.00 | 0.00 | 0.00 | 84 | 1013.6 |
| 20260504044008 | 5 | 338 | 0.0 | 0.0 | 0.00 | 0.00 | 0.00 | 83 | 1013.5 |
| 20260504043747 | 5 | 338 | 0.0 | 1.6 | 0.00 | 0.00 | 0.00 | 83 | 1013.6 |
| 20260504043007 | 5 | 338 | 0.0 | 1.6 | 0.00 | 0.00 | 0.00 | 84 | 1013.5 |
| 20260504042505 | 5 | 338 | 0.0 | 0.0 | 0.00 | 0.00 | 0.00 | 83 | 1013.4 |
| 20260504042006 | 5 | 338 | 0.0 | 0.0 | 0.00 | 0.00 | 0.00 | 83 | 1013.4 |
| 20260504041504 | 5 | 338 | 0.0 | 0.0 | 0.00 | 0.00 | 0.00 | 83 | 1013.4 |
| 20260504041002 | 5 | 338 | 0.0 | 0.0 | 0.00 | 0.00 | 0.00 | 83 | 1013.5 |
| 20260504040502 | 5 | 338 | 0.0 | 0.0 | 0.00 | 0.00 | 0.00 | 83 | 1013.4 |
| 20260504040003 | 5 | 338 | 0.0 | 0.0 | 0.00 | 0.00 | 0.00 | 82 | 1013.4 |
| 20260504035503 | 5 | 338 | 0.0 | 0.0 | 0.00 | 0.00 | 0.00 | 82 | 1013.5 |
| 20260504035003 | 5 | 338 | 0.0 | 0.0 | 0.00 | 0.00 | 0.00 | 82 | 1013.4 |
| 20260504034504 | 5 | 338 | 0.0 | 0.0 | 0.00 | 0.00 | 0.00 | 82 | 1013.5 |
| 20260504034000 | 5 | 338 | 0.0 | 0.0 | 0.00 | 0.00 | 0.00 | 82 | 1013.5 |
| 20260504033500 | 5 | 338 | 0.0 | 0.0 | 0.00 | 0.00 | 0.00 | 82 | 1013.6 |
| 20260504033000 | 5 | 338 | 0.0 | 0.0 | 0.00 | 0.00 | 0.00 | 81 | 1013.5 |
| 20260504032500 | 5 | 338 | 0.0 | 0.0 | 0.00 | 0.00 | 0.00 | 81 | 1013.4 |
| 20260504031959 | 6 | 338 | 0.0 | 0.0 | 0.00 | 0.00 | 0.00 | 81 | 1013.4 |
| 20260504031455 | 6 | 338 | 0.0 | 0.0 | 0.00 | 0.00 | 0.00 | 80 | 1013.2 |
| 20260504030954 | 6 | 338 | 0.0 | 0.0 | 0.00 | 0.00 | 0.00 | 79 | 1013.3 |
| 20260504030453 | 6 | 338 | 0.0 | 0.0 | 0.00 | 0.00 | 0.00 | 79 | 1013.3 |
| 20260504025953 | 6 | 338 | 0.0 | 0.0 | 0.00 | 0.00 | 0.00 | 79 | 1013.3 |
| 20260504025454 | 6 | 338 | 0.0 | 0.0 | 0.00 | 0.00 | 0.00 | 78 | 1013.3 |
| 20260504024954 | 6 | 338 | 0.0 | 0.0 | 0.00 | 0.00 | 0.00 | 78 | 1013.2 |
| 20260504024456 | 6 | 338 | 0.0 | 0.0 | 0.00 | 0.00 | 0.00 | 78 | 1013.2 |
| 20260504023945 | 6 | 338 | 0.0 | 0.0 | 0.00 | 0.00 | 0.00 | 76 | 1013.2 |
| 20260504023445 | 6 | 338 | 0.0 | 0.0 | 0.00 | 0.00 | 0.00 | 76 | 1013.2 |
| 20260504022944 | 6 | 338 | 0.0 | 0.0 | 0.00 | 0.00 | 0.00 | 76 | 1013.1 |
| 20260504022444 | 7 | 338 | 0.0 | 0.0 | 0.00 | 0.00 | 0.00 | 75 | 1013.1 |
| 20260504021943 | 7 | 338 | 0.0 | 0.0 | 0.00 | 0.00 | 0.00 | 75 | 1013.1 |
| 20260504021727 | 7 | 338 | 0.0 | 0.0 | 0.00 | 0.00 | 0.00 | 74 | 1013.1 |
| 20260504020943 | 7 | 338 | 0.0 | 0.0 | 0.00 | 0.00 | 0.00 | 74 | 1013.0 |
| 20260504020442 | 7 | 338 | 0.0 | 0.0 | 0.00 | 0.00 | 0.00 | 74 | 1013.0 |
| 20260504015943 | 7 | 338 | 0.0 | 0.0 | 0.00 | 0.00 | 0.00 | 73 | 1012.9 |
| 20260504015726 | 7 | 338 | 0.0 | 0.0 | 0.00 | 0.00 | 0.00 | 72 | 1012.9 |
| 20260504015222 | 7 | 338 | 0.0 | 0.0 | 0.00 | 0.00 | 0.00 | 71 | 1012.8 |
| 20260504014443 | 8 | 338 | 0.0 | 0.0 | 0.00 | 0.00 | 0.00 | 70 | 1012.8 |
| 20260504013945 | 8 | 338 | 0.0 | 0.0 | 0.00 | 0.00 | 0.00 | 69 | 1012.8 |
| 20260504013443 | 8 | 338 | 0.0 | 0.0 | 0.00 | 0.00 | 0.00 | 69 | 1012.8 |
| 20260504012943 | 8 | 338 | 0.0 | 0.0 | 0.00 | 0.00 | 0.00 | 68 | 1012.7 |
| 20260504012442 | 8 | 338 | 0.0 | 0.0 | 0.00 | 0.00 | 0.00 | 67 | 1012.7 |
| 20260504011942 | 8 | 338 | 0.0 | 0.0 | 0.00 | 0.00 | 0.00 | 65 | 1012.6 |
| 20260504011441 | 9 | 338 | 0.0 | 0.0 | 0.00 | 0.00 | 0.00 | 64 | 1012.6 |
| 20260504010941 | 9 | 338 | 0.0 | 0.0 | 0.00 | 0.00 | 0.00 | 62 | 1012.6 |
| 20260504010441 | 10 | 338 | 0.0 | 0.0 | 0.00 | 0.00 | 0.00 | 62 | 1012.6 |
| 20260504005941 | 10 | 338 | 0.0 | 0.0 | 0.00 | 0.00 | 0.00 | 61 | 1012.6 |
| 20260504005438 | 10 | 338 | 0.0 | 0.0 | 0.00 | 0.00 | 0.00 | 60 | 1012.7 |
| 20260504004938 | 10 | 338 | 0.0 | 0.0 | 0.00 | 0.00 | 0.00 | 58 | 1012.6 |
| 20260504004438 | 10 | 338 | 0.0 | 0.0 | 0.00 | 0.00 | 0.00 | 57 | 1012.4 |
| 20260504003936 | 10 | 338 | 0.0 | 0.0 | 0.00 | 0.00 | 0.00 | 57 | 1012.4 |
| 20260504003433 | 11 | 338 | 0.0 | 0.0 | 0.00 | 0.00 | 0.00 | 55 | 1012.3 |
| 20260504003213 | 11 | 338 | 0.0 | 0.0 | 0.00 | 0.00 | 0.00 | 54 | 1012.3 |
| 20260504002435 | 11 | 338 | 0.0 | 0.0 | 0.00 | 0.00 | 0.00 | 54 | 1012.3 |
| 20260504001932 | 12 | 338 | 0.0 | 0.0 | 0.00 | 0.00 | 0.00 | 53 | 1012.3 |
| 20260504001432 | 12 | 338 | 0.0 | 0.0 | 0.00 | 0.00 | 0.00 | 50 | 1012.3 |
| 20260504000929 | 12 | 338 | 0.0 | 0.0 | 0.00 | 0.00 | 0.00 | 49 | 1012.3 |
| 20260504000427 | 13 | 338 | 0.0 | 0.0 | 0.00 | 0.00 | 0.00 | 46 | 1012.1 |
| 20260503235928 | 13 | 338 | 0.0 | 0.0 | 0.00 | 0.00 | 0.00 | 45 | 1012.0 |
| 20260503235425 | 13 | 338 | 0.0 | 0.0 | 0.00 | 0.00 | 0.00 | 43 | 1012.0 |
| 20260503234922 | 13 | 338 | 0.0 | 0.0 | 0.00 | 0.00 | 0.00 | 41 | 1012.0 |
| 20260503234418 | 14 | 338 | 0.0 | 0.0 | 0.00 | 0.00 | 0.00 | 40 | 1012.0 |
| 20260503233918 | 14 | 338 | 0.0 | 1.6 | 0.00 | 0.00 | 0.00 | 40 | 1011.9 |
| 20260503233418 | 15 | 338 | 0.0 | 1.6 | 0.00 | 0.00 | 0.00 | 38 | 1012.0 |
| 20260503232915 | 15 | 338 | 0.0 | 1.6 | 0.00 | 0.00 | 0.00 | 37 | 1011.9 |
| 20260503232418 | 15 | 338 | 0.0 | 8.0 | 0.00 | 0.00 | 0.00 | 36 | 1011.9 |
| 20260503231907 | 15 | 338 | 1.6 | 8.0 | 0.00 | 0.00 | 0.00 | 36 | 1011.8 |
| 20260503231407 | 15 | 262 | 0.0 | 8.0 | 0.00 | 0.00 | 0.00 | 36 | 1011.7 |
| 20260503230904 | 15 | 264 | 1.6 | 8.0 | 0.00 | 0.00 | 0.00 | 36 | 1011.6 |
| 20260503230404 | 15 | 245 | 1.6 | 6.4 | 0.00 | 0.00 | 0.00 | 34 | 1011.7 |
| 20260503225904 | 16 | 290 | 0.0 | 3.2 | 0.00 | 0.00 | 0.00 | 36 | 1011.6 |
| 20260503225404 | 16 | 290 | 0.0 | 4.8 | 0.00 | 0.00 | 0.00 | 37 | 1011.7 |
| 20260503224905 | 16 | 281 | 0.0 | 4.8 | 0.00 | 0.00 | 0.00 | 35 | 1011.7 |
| 20260503224404 | 16 | 14 | 3.2 | 6.4 | 0.00 | 0.00 | 0.00 | 35 | 1011.7 |
| 20260503223904 | 16 | 303 | 0.0 | 6.4 | 0.00 | 0.00 | 0.00 | 35 | 1011.7 |
| 20260503223402 | 16 | 258 | 3.2 | 4.8 | 0.00 | 0.00 | 0.00 | 34 | 1011.7 |
| 20260503222902 | 16 | 331 | 1.6 | 9.7 | 0.00 | 0.00 | 0.00 | 35 | 1011.8 |
| 20260503222645 | 16 | 18 | 1.6 | 9.7 | 0.00 | 0.00 | 0.00 | 34 | 1011.7 |
| 20260503221901 | 16 | 196 | 1.6 | 4.8 | 0.00 | 0.00 | 0.00 | 33 | 1011.8 |
| 20260503221402 | 16 | 172 | 1.6 | 6.4 | 0.00 | 0.00 | 0.00 | 33 | 1011.8 |
| 20260503221143 | 17 | 261 | 0.0 | 6.4 | 0.00 | 0.00 | 0.00 | 33 | 1011.8 |
| 20260503220400 | 17 | 353 | 1.6 | 6.4 | 0.00 | 0.00 | 0.00 | 33 | 1011.8 |
| 20260503220142 | 16 | 292 | 1.6 | 6.4 | 0.00 | 0.00 | 0.00 | 32 | 1011.8 |
| 20260503215400 | 16 | 262 | 3.2 | 6.4 | 0.00 | 0.00 | 0.00 | 33 | 1011.9 |
| 20260503214859 | 17 | 240 | 3.2 | 8.0 | 0.00 | 0.00 | 0.00 | 33 | 1011.8 |
| 20260503214400 | 17 | 4 | 1.6 | 8.0 | 0.00 | 0.00 | 0.00 | 32 | 1011.8 |
| 20260503213856 | 17 | 0 | 1.6 | 6.4 | 0.00 | 0.00 | 0.00 | 33 | 1011.9 |
| 20260503213638 | 17 | 212 | 3.2 | 11.3 | 0.00 | 0.00 | 0.00 | 33 | 1012.0 |
| 20260503212858 | 17 | 343 | 4.8 | 11.3 | 0.00 | 0.00 | 0.00 | 32 | 1012.0 |
| 20260503212357 | 17 | 245 | 3.2 | 6.4 | 0.00 | 0.00 | 0.00 | 32 | 1012.0 |
| 20260503211859 | 17 | 0 | 1.6 | 11.3 | 0.00 | 0.00 | 0.00 | 33 | 1011.9 |
| 20260503211356 | 17 | 255 | 3.2 | 11.3 | 0.00 | 0.00 | 0.00 | 31 | 1012.0 |
| 20260503211134 | 17 | 223 | 3.2 | 9.7 | 0.00 | 0.00 | 0.00 | 31 | 1012.0 |
| 20260503210356 | 17 | 220 | 1.6 | 17.7 | 0.00 | 0.00 | 0.00 | 33 | 1012.0 |
| 20260503205855 | 17 | 326 | 4.8 | 17.7 | 0.00 | 0.00 | 0.00 | 31 | 1012.0 |
| 20260503205633 | 17 | 68 | 3.2 | 9.7 | 0.00 | 0.00 | 0.00 | 31 | 1012.0 |